Showing default

ICEYE-X55, 64581

Orbit data source: Space-Track

ICEYE-X55, 64581 is a payload satellite owned by ICEYE (FI) in SSO that was launched on Mon, 23 Jun 2025 UTC via an FALCON 9 launch vehicle from the Air Force Western Test Range (AFWTR). Payload-class satellites include a variety of spacecraft equipped with specific instruments for various scientific and technological missions. These include communications satellites like Starlink; space stations such as the ISS; scientific satellites like the Hubble; Earth observation satellites from companies like Planet Labs, Umbra, and HawkEye 360; GPS; miniature CubeSats for education and research; and military/defense satellites.

Loading next visibility...
Identifier
64581, 2025-135BF
Orbit
SSO
Country
Flag of FIFI / FIN
Related business
Manufacturer
ICEYE
Mission
Operational Commercial Radar Imaging
Bus & Motor
ICEYE, Unknown motor
Mass
80 kg wet, 80 kg dry
Launch date (UTC)
2025-06-23 (10 months ago)
Launch vehicle
FALCON 9
Launch site
Air Force Western Test Range (AFWTR)
Object type
Payload
Rocket body
Debris
Shape & HBR
Box + 1 Pan, 2.4 m
Radar Cross Section
0.776 m², Medium (>0.1 m² and < 1m²)

Expand to show TLE details & history
Last TLE update: 8 hours ago

TLE from 8 hours ago
0 ICEYE-X55
1 64581U 25135BF  26112.14537167  .00002507  00000-0  23531-3 0  9997
2 64581  97.7673 227.4592 0003858 152.1073 208.0355 14.94865144 45546
Epoch: 2026-04-22T03:29Z
TLE epoch observation values (Epoch: 2026-04-22T03:29:20.112Z)
Latitude
-0°
Longitude
-35.0856°
Altitude
588.208 km
Speed
7.565 km/s
True Right ascension
15h 09m 50s
True Declination
0° 00' 00"
Sunlit
Object was in full shadow at epoch
Visualization orbit readout
Latitude
Unknown
Longitude
Unknown
Altitude
Unknown
Speed
Unknown
Apparent Right ascension
Unknown
Apparent Declination
Unknown
Sunlit
N/A
Visualization observer readout
Local Sidereal Time
18:27:34
Azimuth
Unknown
Elevation
Unknown
Doppler factor
Unknown
Orbital elements
Apogee altitude
582.491 km
Perigee altitude
577.122 km
Semi-major axis
6,957.943 km
Eccentricity
0.00039
Inclination
97.7673°
RAAN
227.4592°
Arg. of periapsis
152.1073°
True anomaly
208.01473°
Mean anomaly
208.0355°
Eccentric anomaly
208.02511°
Mean motion
3.73957 °/min
Orbital period
96.27 mins
BSTAR
0.00023531
Loading maneuver chart data...
Computing Atmospheric mass density...
Loading historical data...
Loading historical data...
Loading historical data...
Loading historical data...
Loading historical data...
Loading historical data...
Loading historical data...

Documentation

Showing up to 5 results
|